Location: Chanteloup
(48.8560°N, 2.7390°E)
Time: 18:25:02
(UTC+00:00)

deb ESSA 1 - Visible Passes

Search period start: 11 August 2022 00:00
Search period end: 21 August 2022 00:00
Orbit: 653 x 842 km, 97.9° (Epoch: 10 August)

Date Brightness Start Highest point End Pass type
(mag) Time Alt. Az. Time Alt. Az. Time Alt. Az.
12 Aug ? 20:31:56 10° NNW 20:35:08 17° WNW 20:38:13 10° W visible
13 Aug ? 19:49:12 10° N 19:53:42 35° WNW 19:57:58 10° SW visible
14 Aug ? 03:51:02 10° ENE 03:53:16 13° NE 03:55:29 10° NNE visible
14 Aug ? 20:47:34 10° NNW 20:49:48 13° NW 20:51:58 10° W visible
15 Aug ? 20:04:23 10° N 20:08:27 26° WNW 20:12:20 10° WSW visible
16 Aug ? 04:04:47 10° E 04:07:58 16° NE 04:11:06 10° NNE visible
17 Aug ? 20:19:40 10° NNW 20:23:10 20° WNW 20:26:32 10° WSW visible
18 Aug ? 19:37:05 10° N 19:41:38 42° WNW 19:45:59 10° SW visible
19 Aug ? 03:41:09 10° NE 03:41:26 10° NE 03:41:42 10° NE visible
19 Aug ? 20:35:07 10° NNW 20:37:50 15° NW 20:40:30 10° W visible
20 Aug ? 19:52:12 10° N 19:56:25 31° WNW 20:00:26 10° SW visible
